CZ-7 DEB, 61985

Orbit data source: Space-Track

CZ-7 DEB, 61985 is space debris in LEO originally from a launch on Fri, 15 Nov 2024 UTC launched from the Wenchang Satellite Launch Center (WSC). Debris objects in space refer to the collection of defunct objects orbiting the Earth. Examples of debris include non-operational satellites, rocket bodies, and fragments generated from explosions, collisions, or faulty payload assembly.

Not visible in the next 10 days
CZ-7 DEB details
Identifier
61985, 2024-211C
Orbit
LEO
Last TLE update4 days ago
Origin
Flag of CNCNSA (CN / PRC)
ManufacturerCALT
MissionSpacecraft
Bus & MotorUnknown
MassUnknown
Launch date (UTC)
2024-11-15 (6 days ago)
Launch vehicleUnknown
Launch site
Wenchang Satellite Launch Center (WSC)
Object type
Payload
Rocket body
Debris
Shape & HBRUnknown
Radar Cross SectionRCS unknown

Expand to show TLE details & history

TLE from 4 days ago
0 CZ-7 DEB
1 61985U 24211C   24322.12276153  .11069787  67666-5  62994-2 0  9996
2 61985  41.3258 230.1136 0138930 163.0962 197.4583 15.99971003   226
Epoch: 2024-11-17T02:56Z
Definitive object data (Epoch: 2024-11-17T02:56:46.596Z)
Latitude-0.00004°
Longitude129.25297°
Altitude362.342 km
Speed7.643 km/s
True Right ascension15h 20m 27s
True Declination0° 00' 00"
Sunlit
Object was in daylight at TLE epoch
Visualization observer readout
Observer readout values are unavailable because the object's trajectory could not be propagated. This is usually caused when the trajectory data is faulty or the object's orbit has decayed.
Visualization observer readout
Observer readout values are unavailable because the object's trajectory could not be propagated. This is usually caused when the trajectory data is faulty or the object's orbit has decayed.
Orbital elements
Apogee altitude369.251 km
Perigee altitude184.338 km
Semi-major axis6,654.932 km
Eccentricity0.013893
Inclination41.3258°
RAAN230.1136°
Arg. of periapsis163.0962°
True anomaly196.98847°
Mean anomaly197.4583°
Eccentric anomaly197.22261°
Mean motion3.99786 °/min
BSTAR0.0062994
Orbital period90.05 mins
Loading maneuver chart data...
Loading historical data...
Loading historical data...
Loading historical data...
Loading historical data...
Loading historical data...
Loading historical data...
Loading historical data...
Other satellites on launch #211 in the year 2024 (2024-11-15 UTC)

CZ-7 DEB Visibility forecast

Observer location: undefined°, undefined

CZ-7 DEB is not visible in the next 10 days
Span
Click to sort rows by Start time (UTC) header in descending order
Start Az.
Max El. time (UTC)
Max El. Az.
Max El.
End time (UTC)
End Az.
|